Flagstaff, AZ

11:50 PM MST on September 25, 2016 (GMT -0700)
University Highlands | | Change Station

Elev 7067 ft 35.17 °N, 111.68 °W | Updated 8 seconds ago

Clear
Clear
54.3 °F
Feels Like 54.3 °F
N
0.0
Wind Variable Wind from SW
Gusts 0.0 mph

Today
High -- | Low -- °F
--% Chance of Precip.
Yesterday
High -- | Low -- °F
Precip. -- in
Pressure 30.19 in
Visibility 10.0 miles
Clouds Clear
Dew Point 31 °F
Humidity 41%
Rainfall in
Snow Depth Not available.
6:17 AM 6:18 PM
Waning Crescent, 21% visible
METAR KFLG 260557Z AUTO 06011KT 10SM CLR 13/M02 A3041 RMK AO2 SLP221 T01331017 10178 20100 51008
Pressure 30.19 in
Visibility 10.0 miles
Clouds Clear
Dew Point 31 °F
Humidity 41%
Rainfall in
Snow Depth Not available.
6:17 AM 6:18 PM
Waning Crescent, 21% visible
METAR KFLG 260557Z AUTO 06011KT 10SM CLR 13/M02 A3041 RMK AO2 SLP221 T01331017 10178 20100 51008

10-Day Weather Forecast

Almanac

Astronomy

Sep. 25, 2016 Rise Set
Actual Time
Civil Twilight
Nautical Twilight
Astronomical Twilight
Moon
Length of Visible Light
Length of Day
Tomorrow will be .
, % of the Moon is Illuminated

Today's Extremes

State Highs State Lows

Community

WunderPhotos

Upload Photos

1,941,853 photos uploaded!

WunderBlog® & News

Nearby

Air Quality

  Air Quality AQ Index Pollutant
Not available.

Snow Depth

Station Depth Elevation

Earthquake Activity

City Distance Mag. Time & Date
Minimum magnitude displayed is 2.5.

Coastal Water Temperatures

Place Temperature

Stations

Nearby Weather Stations

Station Location Temp. Windchill Dew Point Humidity Wind Precip. Elev Updated Type
                   

Watches & Warnings

There are currently no watches in effect.